OBJECT DK, 66771

Orbit data source: Space-Track

You're viewing an Uncataloged Satellite

Recently launched and/or uncataloged satellites may have evolving metadata. Metadata may include but not limited to: Owner, Maufacturer, Bus, Motor, and Mission.

OBJECT DK, 66771 is a satellite in SSO that was launched on Fri, 28 Nov 2025 UTC via an FALCON 9 launch vehicle from the Air Force Western Test Range (AFWTR). Unknown objects in Earth's orbit typically refer to objects detected orbiting the Earth but have not yet been identified or cataloged. These objects could be anything from previously untracked satellites, spent rocket stages, debris from satellite collisions, or even natural meteoroids temporarily captured by Earth's gravity.

Loading next visibility...
Identifier
66771, 2025-276DK
Orbit
SSO
Country
Flag of TBDTBD
Related business
None
Manufacturer
Unknown
Mission
Operational Commercial Imaging
Bus & Motor
Unknown
Mass
Unknown
Launch date (UTC)
2025-11-28 (2 months ago)
Launch vehicle
FALCON 9
Launch site
Air Force Western Test Range (AFWTR)
Object type
Unknown
Shape & HBR
Box, 0.2 m
Radar Cross Section
0.240 m²

Expand to show TLE details & history
Last TLE update: 4 hours ago

TLE from 4 hours ago
0 OBJECT DK
1 66771U 25276DK  26035.16310848  .00007308  00000-0  35095-3 0  9999
2 66771  97.4372 111.1271 0001776  33.2496 326.8850 15.19142200 10236
Epoch: 2026-02-04T03:54Z
TLE epoch observation values (Epoch: 2026-02-04T03:54:52.572Z)
Latitude
-0.00002°
Longitude
-81.92558°
Altitude
510.495 km
Speed
7.609 km/s
True Right ascension
07h 24m 30s
True Declination
0° 00' 00"
Sunlit
Object was in full shadow at epoch
Visualization orbit readout
Latitude
Unknown
Longitude
Unknown
Altitude
Unknown
Speed
Unknown
Apparent Right ascension
Unknown
Apparent Declination
Unknown
Sunlit
N/A
Visualization observer readout
Local Sidereal Time
10:14:12
Azimuth
Unknown
Elevation
Unknown
Doppler factor
Unknown
Orbital elements
Apogee altitude
506.623 km
Perigee altitude
504.178 km
Semi-major axis
6,883.537 km
Eccentricity
0.00018
Inclination
97.4372°
RAAN
111.1271°
Arg. of periapsis
33.2496°
True anomaly
326.87388°
Mean anomaly
326.885°
Eccentric anomaly
326.87944°
Mean motion
3.80037 °/min
Orbital period
94.73 mins
BSTAR
0.00035095
Loading maneuver chart data...
Computing Atmospheric mass density...
Loading historical data...
Loading historical data...
Loading historical data...
Loading historical data...
Loading historical data...
Loading historical data...
Loading historical data...

Documentation

Showing up to 5 results
|